Location: Goll?ig?dem
(16.6773°N, 80.7332°E)
Time: 19:36:31
(UTC+00:00)

SJ-11-01 - Pass Details

Date: 19 May 2025
Orbit: 674 x 692 km, 98.0° (Epoch: 21 June)

Event Time Altitude Azimuth Distance (km) Brightness Sun altitude
Rises 23:23:27 0° 10° (N) 3,023 8.1 -10.0°
Reaches altitude 10° 23:25:41 10° 10° (N) 2,106 7.3 -9.5°
Maximum altitude 23:30:18 85° 284° (WNW) 680 4.2 -8.5°
Drops below altitude 10° 23:34:53 10° 194° (SSW) 2,099 6.4 -7.5°
Sets 23:37:07 0° 193° (SSW) 3,011 7.2 -7.0°
